<?xml version="1.0" standalone="yes"?><gpx version="1.1" creator="MacGPS Pro - http://www.macgpspro.com"xmlns="http://www.topografix.com/GPX/1/1" xmlns:xsi="http://www.w3.org/2001/XMLSchema-instance" xsi:schemaLocation="http://www.topografix.com/GPX/1/1 http://www.topografix.com/GPX/1/1/gpx.xsd">

<wpt lat="50.753671" lon="5.756718"><time>2008-10-21T09:03:54.000Z</time><name>START</name><cmt>STARTPLAATS BLAUWE LUS VOEREN</cmt><desc>STARTPLAATS BLAUWE LUS VOEREN</desc><sym>Waypoint</sym></wpt>
<trk><name>BL-ZW-VOEREN</name><trkseg><trkpt lat="50.753667" lon="5.756722"> <time>2008-10-21T09:21:00.000Z</time> </trkpt><trkpt lat="50.752917" lon="5.754889"> <time>2008-10-21T09:21:00.000Z</time> </trkpt><trkpt lat="50.752889" lon="5.753389"> <time>2008-10-21T09:21:00.000Z</time> </trkpt><trkpt lat="50.753250" lon="5.752750"> <time>2008-10-21T09:21:00.000Z</time> </trkpt><trkpt lat="50.753861" lon="5.752333"> <time>2008-10-21T09:21:00.000Z</time> </trkpt><trkpt lat="50.755778" lon="5.750778"> <time>2008-10-21T09:21:00.000Z</time> </trkpt><trkpt lat="50.756167" lon="5.750222"> <time>2008-10-21T09:21:00.000Z</time> </trkpt><trkpt lat="50.756806" lon="5.749111"> <time>2008-10-21T09:21:00.000Z</time> </trkpt><trkpt lat="50.757556" lon="5.748889"> <time>2008-10-21T09:21:00.000Z</time> </trkpt><trkpt lat="50.758083" lon="5.749139"> <time>2008-10-21T09:21:00.000Z</time> </trkpt><trkpt lat="50.758500" lon="5.749111"> <time>2008-10-21T09:21:00.000Z</time> </trkpt><trkpt lat="50.760833" lon="5.749944"> <time>2008-10-21T09:21:00.000Z</time> </trkpt><trkpt lat="50.760917" lon="5.750556"> <time>2008-10-21T09:21:00.000Z</time> </trkpt><trkpt lat="50.761389" lon="5.750528"> <time>2008-10-21T09:21:00.000Z</time> </trkpt><trkpt lat="50.761889" lon="5.750861"> <time>2008-10-21T09:21:00.000Z</time> </trkpt><trkpt lat="50.761972" lon="5.751333"> <time>2008-10-21T09:21:00.000Z</time> </trkpt><trkpt lat="50.762472" lon="5.751722"> <time>2008-10-21T09:21:00.000Z</time> </trkpt><trkpt lat="50.762694" lon="5.750750"> <time>2008-10-21T09:21:00.000Z</time> </trkpt><trkpt lat="50.762778" lon="5.749611"> <time>2008-10-21T09:21:00.000Z</time> </trkpt><trkpt lat="50.762833" lon="5.749139"> <time>2008-10-21T09:21:00.000Z</time> </trkpt><trkpt lat="50.762528" lon="5.745778"> <time>2008-10-21T09:21:00.000Z</time> </trkpt><trkpt lat="50.764083" lon="5.740778"> <time>2008-10-21T09:21:00.000Z</time> </trkpt><trkpt lat="50.764917" lon="5.737722"> <time>2008-10-21T09:21:00.000Z</time> </trkpt><trkpt lat="50.765028" lon="5.736833"> <time>2008-10-21T09:21:00.000Z</time> </trkpt><trkpt lat="50.768861" lon="5.739528"> <time>2008-10-21T09:21:00.000Z</time> </trkpt><trkpt lat="50.770694" lon="5.743333"> <time>2008-10-21T09:21:00.000Z</time> </trkpt><trkpt lat="50.770389" lon="5.744167"> <time>2008-10-21T09:21:00.000Z</time> </trkpt><trkpt lat="50.768833" lon="5.746917"> <time>2008-10-21T09:21:00.000Z</time> </trkpt><trkpt lat="50.768333" lon="5.748889"> <time>2008-10-21T09:21:00.000Z</time> </trkpt><trkpt lat="50.768111" lon="5.749444"> <time>2008-10-21T09:21:00.000Z</time> </trkpt><trkpt lat="50.767611" lon="5.749333"> <time>2008-10-21T09:21:00.000Z</time> </trkpt><trkpt lat="50.766278" lon="5.749444"> <time>2008-10-21T09:21:00.000Z</time> </trkpt><trkpt lat="50.766056" lon="5.749944"> <time>2008-10-21T09:21:00.000Z</time> </trkpt><trkpt lat="50.766056" lon="5.751611"> <time>2008-10-21T09:21:00.000Z</time> </trkpt><trkpt lat="50.766611" lon="5.752472"> <time>2008-10-21T09:21:00.000Z</time> </trkpt><trkpt lat="50.769611" lon="5.754444"> <time>2008-10-21T09:21:00.000Z</time> </trkpt><trkpt lat="50.770222" lon="5.754417"> <time>2008-10-21T09:21:00.000Z</time> </trkpt><trkpt lat="50.770889" lon="5.754639"> <time>2008-10-21T09:21:00.000Z</time> </trkpt><trkpt lat="50.771861" lon="5.754611"> <time>2008-10-21T09:21:00.000Z</time> </trkpt><trkpt lat="50.772806" lon="5.755000"> <time>2008-10-21T09:21:00.000Z</time> </trkpt><trkpt lat="50.774028" lon="5.756000"> <time>2008-10-21T09:21:00.000Z</time> </trkpt><trkpt lat="50.775083" lon="5.755778"> <time>2008-10-21T09:21:00.000Z</time> </trkpt><trkpt lat="50.776917" lon="5.757778"> <time>2008-10-21T09:21:00.000Z</time> </trkpt><trkpt lat="50.778111" lon="5.758583"> <time>2008-10-21T09:21:00.000Z</time> </trkpt><trkpt lat="50.779639" lon="5.758333"> <time>2008-10-21T09:21:00.000Z</time> </trkpt><trkpt lat="50.779833" lon="5.759556"> <time>2008-10-21T09:21:00.000Z</time> </trkpt><trkpt lat="50.780556" lon="5.760861"> <time>2008-10-21T09:21:00.000Z</time> </trkpt><trkpt lat="50.782556" lon="5.765611"> <time>2008-10-21T09:21:00.000Z</time> </trkpt><trkpt lat="50.782861" lon="5.769250"> <time>2008-10-21T09:21:00.000Z</time> </trkpt><trkpt lat="50.780889" lon="5.769111"> <time>2008-10-21T09:21:00.000Z</time> </trkpt><trkpt lat="50.779250" lon="5.766444"> <time>2008-10-21T09:21:00.000Z</time> </trkpt><trkpt lat="50.778333" lon="5.765861"> <time>2008-10-21T09:21:00.000Z</time> </trkpt><trkpt lat="50.777750" lon="5.765083"> <time>2008-10-21T09:21:00.000Z</time> </trkpt><trkpt lat="50.776528" lon="5.764778"> <time>2008-10-21T09:21:00.000Z</time> </trkpt><trkpt lat="50.775722" lon="5.766528"> <time>2008-10-21T09:21:00.000Z</time> </trkpt><trkpt lat="50.774917" lon="5.766944"> <time>2008-10-21T09:21:00.000Z</time> </trkpt><trkpt lat="50.774444" lon="5.766722"> <time>2008-10-21T09:21:00.000Z</time> </trkpt><trkpt lat="50.774528" lon="5.767167"> <time>2008-10-21T09:21:00.000Z</time> </trkpt><trkpt lat="50.774056" lon="5.768611"> <time>2008-10-21T09:21:00.000Z</time> </trkpt><trkpt lat="50.774028" lon="5.769000"> <time>2008-10-21T09:21:00.000Z</time> </trkpt><trkpt lat="50.774250" lon="5.769944"> <time>2008-10-21T09:21:00.000Z</time> </trkpt><trkpt lat="50.773833" lon="5.772194"> <time>2008-10-21T09:21:00.000Z</time> </trkpt><trkpt lat="50.773833" lon="5.773806"> <time>2008-10-21T09:21:00.000Z</time> </trkpt><trkpt lat="50.773444" lon="5.774750"> <time>2008-10-21T09:21:00.000Z</time> </trkpt><trkpt lat="50.773556" lon="5.775722"> <time>2008-10-21T09:21:00.000Z</time> </trkpt><trkpt lat="50.773833" lon="5.777028"> <time>2008-10-21T09:21:00.000Z</time> </trkpt><trkpt lat="50.774028" lon="5.778917"> <time>2008-10-21T09:21:00.000Z</time> </trkpt><trkpt lat="50.774111" lon="5.779944"> <time>2008-10-21T09:21:00.000Z</time> </trkpt><trkpt lat="50.775056" lon="5.784250"> <time>2008-10-21T09:21:00.000Z</time> </trkpt><trkpt lat="50.775028" lon="5.785833"> <time>2008-10-21T09:21:00.000Z</time> </trkpt><trkpt lat="50.775500" lon="5.787667"> <time>2008-10-21T09:21:00.000Z</time> </trkpt><trkpt lat="50.775639" lon="5.788694"> <time>2008-10-21T09:21:00.000Z</time> </trkpt><trkpt lat="50.776056" lon="5.789000"> <time>2008-10-21T09:21:00.000Z</time> </trkpt><trkpt lat="50.776417" lon="5.789000"> <time>2008-10-21T09:21:00.000Z</time> </trkpt><trkpt lat="50.777472" lon="5.790500"> <time>2008-10-21T09:21:00.000Z</time> </trkpt><trkpt lat="50.777861" lon="5.791333"> <time>2008-10-21T09:21:00.000Z</time> </trkpt><trkpt lat="50.778667" lon="5.792111"> <time>2008-10-21T09:21:00.000Z</time> </trkpt><trkpt lat="50.778083" lon="5.793167"> <time>2008-10-21T09:21:00.000Z</time> </trkpt><trkpt lat="50.777528" lon="5.793667"> <time>2008-10-21T09:21:00.000Z</time> </trkpt><trkpt lat="50.776361" lon="5.794028"> <time>2008-10-21T09:21:00.000Z</time> </trkpt><trkpt lat="50.775444" lon="5.795222"> <time>2008-10-21T09:21:00.000Z</time> </trkpt><trkpt lat="50.774333" lon="5.795556"> <time>2008-10-21T09:21:00.000Z</time> </trkpt><trkpt lat="50.773194" lon="5.796000"> <time>2008-10-21T09:21:00.000Z</time> </trkpt><trkpt lat="50.772250" lon="5.796111"> <time>2008-10-21T09:21:00.000Z</time> </trkpt><trkpt lat="50.771250" lon="5.796750"> <time>2008-10-21T09:21:00.000Z</time> </trkpt><trkpt lat="50.770972" lon="5.795306"> <time>2008-10-21T09:21:00.000Z</time> </trkpt><trkpt lat="50.769750" lon="5.792111"> <time>2008-10-21T09:21:00.000Z</time> </trkpt><trkpt lat="50.768556" lon="5.789667"> <time>2008-10-21T09:21:00.000Z</time> </trkpt><trkpt lat="50.768083" lon="5.788611"> <time>2008-10-21T09:21:00.000Z</time> </trkpt><trkpt lat="50.767639" lon="5.787000"> <time>2008-10-21T09:21:00.000Z</time> </trkpt><trkpt lat="50.767139" lon="5.784139"> <time>2008-10-21T09:21:00.000Z</time> </trkpt><trkpt lat="50.766139" lon="5.779250"> <time>2008-10-21T09:21:00.000Z</time> </trkpt><trkpt lat="50.765750" lon="5.778111"> <time>2008-10-21T09:21:00.000Z</time> </trkpt><trkpt lat="50.764944" lon="5.776889"> <time>2008-10-21T09:21:00.000Z</time> </trkpt><trkpt lat="50.764361" lon="5.776750"> <time>2008-10-21T09:21:00.000Z</time> </trkpt><trkpt lat="50.763694" lon="5.776056"> <time>2008-10-21T09:21:00.000Z</time> </trkpt><trkpt lat="50.763417" lon="5.775722"> <time>2008-10-21T09:21:00.000Z</time> </trkpt><trkpt lat="50.763250" lon="5.775250"> <time>2008-10-21T09:21:00.000Z</time> </trkpt><trkpt lat="50.762056" lon="5.774222"> <time>2008-10-21T09:21:00.000Z</time> </trkpt><trkpt lat="50.761528" lon="5.773444"> <time>2008-10-21T09:21:00.000Z</time> </trkpt><trkpt lat="50.760750" lon="5.771861"> <time>2008-10-21T09:21:00.000Z</time> </trkpt><trkpt lat="50.760278" lon="5.770611"> <time>2008-10-21T09:21:00.000Z</time> </trkpt><trkpt lat="50.760222" lon="5.768528"> <time>2008-10-21T09:21:00.000Z</time> </trkpt><trkpt lat="50.759528" lon="5.768806"> <time>2008-10-21T09:21:00.000Z</time> </trkpt><trkpt lat="50.759278" lon="5.769583"> <time>2008-10-21T09:21:00.000Z</time> </trkpt><trkpt lat="50.759500" lon="5.771444"> <time>2008-10-21T09:21:00.000Z</time> </trkpt><trkpt lat="50.759667" lon="5.772389"> <time>2008-10-21T09:21:00.000Z</time> </trkpt><trkpt lat="50.760056" lon="5.774667"> <time>2008-10-21T09:21:00.000Z</time> </trkpt><trkpt lat="50.760167" lon="5.775583"> <time>2008-10-21T09:21:00.000Z</time> </trkpt><trkpt lat="50.759806" lon="5.776639"> <time>2008-10-21T09:21:00.000Z</time> </trkpt><trkpt lat="50.759806" lon="5.777556"> <time>2008-10-21T12:33:44.000Z</time> </trkpt><trkpt lat="50.760139" lon="5.778750"> <time>2008-10-21T12:33:44.000Z</time> </trkpt><trkpt lat="50.760139" lon="5.779167"> <time>2008-10-21T12:33:44.000Z</time> </trkpt><trkpt lat="50.760250" lon="5.779722"> <time>2008-10-21T12:33:44.000Z</time> </trkpt><trkpt lat="50.760111" lon="5.781139"> <time>2008-10-21T12:33:44.000Z</time> </trkpt><trkpt lat="50.759806" lon="5.781806"> <time>2008-10-21T12:33:44.000Z</time> </trkpt><trkpt lat="50.759694" lon="5.783250"> <time>2008-10-21T12:33:44.000Z</time> </trkpt><trkpt lat="50.759167" lon="5.785806"> <time>2008-10-21T12:33:44.000Z</time> </trkpt><trkpt lat="50.758861" lon="5.785972"> <time>2008-10-21T12:33:44.000Z</time> </trkpt><trkpt lat="50.759000" lon="5.786694"> <time>2008-10-21T12:33:44.000Z</time> </trkpt><trkpt lat="50.759056" lon="5.787500"> <time>2008-10-21T12:33:44.000Z</time> </trkpt><trkpt lat="50.758500" lon="5.790722"> <time>2008-10-21T12:33:44.000Z</time> </trkpt><trkpt lat="50.758222" lon="5.791528"> <time>2008-10-21T12:33:44.000Z</time> </trkpt><trkpt lat="50.758083" lon="5.793889"> <time>2008-10-21T12:33:44.000Z</time> </trkpt><trkpt lat="50.757722" lon="5.798000"> <time>2008-10-21T12:33:44.000Z</time> </trkpt><trkpt lat="50.757417" lon="5.801083"> <time>2008-10-21T12:33:44.000Z</time> </trkpt><trkpt lat="50.757556" lon="5.802194"> <time>2008-10-21T12:33:44.000Z</time> </trkpt><trkpt lat="50.756833" lon="5.805472"> <time>2008-10-21T12:33:44.000Z</time> </trkpt><trkpt lat="50.756556" lon="5.805611"> <time>2008-10-21T12:33:44.000Z</time> </trkpt><trkpt lat="50.756194" lon="5.807306"> <time>2008-10-21T12:33:44.000Z</time> </trkpt><trkpt lat="50.756028" lon="5.807722"> <time>2008-10-21T12:33:44.000Z</time> </trkpt><trkpt lat="50.755889" lon="5.808667"> <time>2008-10-21T12:33:44.000Z</time> </trkpt><trkpt lat="50.755889" lon="5.810083"> <time>2008-10-21T12:33:44.000Z</time> </trkpt><trkpt lat="50.755917" lon="5.810639"> <time>2008-10-21T12:33:44.000Z</time> </trkpt><trkpt lat="50.755972" lon="5.812306"> <time>2008-10-21T12:33:44.000Z</time> </trkpt><trkpt lat="50.756111" lon="5.814139"> <time>2008-10-21T12:33:44.000Z</time> </trkpt><trkpt lat="50.754111" lon="5.814083"> <time>2008-10-21T12:33:44.000Z</time> </trkpt><trkpt lat="50.752083" lon="5.813028"> <time>2008-10-21T12:33:44.000Z</time> </trkpt><trkpt lat="50.751861" lon="5.812889"> <time>2008-10-21T12:33:44.000Z</time> </trkpt><trkpt lat="50.751278" lon="5.813056"> <time>2008-10-21T12:33:44.000Z</time> </trkpt><trkpt lat="50.750917" lon="5.812611"> <time>2008-10-21T12:33:44.000Z</time> </trkpt><trkpt lat="50.750278" lon="5.812500"> <time>2008-10-21T12:33:44.000Z</time> </trkpt><trkpt lat="50.749972" lon="5.812194"> <time>2008-10-21T12:33:44.000Z</time> </trkpt><trkpt lat="50.749389" lon="5.813000"> <time>2008-10-21T13:06:53.000Z</time> </trkpt><trkpt lat="50.749861" lon="5.815639"> <time>2008-10-21T13:06:53.000Z</time> </trkpt><trkpt lat="50.749222" lon="5.815833"> <time>2008-10-21T13:06:53.000Z</time> </trkpt><trkpt lat="50.747806" lon="5.814778"> <time>2008-10-21T13:06:53.000Z</time> </trkpt><trkpt lat="50.747583" lon="5.815778"> <time>2008-10-21T13:06:53.000Z</time> </trkpt><trkpt lat="50.747556" lon="5.816444"> <time>2008-10-21T13:06:53.000Z</time> </trkpt><trkpt lat="50.746722" lon="5.820056"> <time>2008-10-21T13:06:53.000Z</time> </trkpt><trkpt lat="50.746611" lon="5.821278"> <time>2008-10-21T13:06:53.000Z</time> </trkpt><trkpt lat="50.746472" lon="5.821917"> <time>2008-10-21T13:06:53.000Z</time> </trkpt><trkpt lat="50.745528" lon="5.829722"> <time>2008-10-21T13:06:53.000Z</time> </trkpt><trkpt lat="50.745306" lon="5.831000"> <time>2008-10-21T13:06:53.000Z</time> </trkpt><trkpt lat="50.744889" lon="5.832889"> <time>2008-10-21T13:06:53.000Z</time> </trkpt><trkpt lat="50.745472" lon="5.834083"> <time>2008-10-21T13:06:53.000Z</time> </trkpt><trkpt lat="50.746417" lon="5.834000"> <time>2008-10-21T13:06:53.000Z</time> </trkpt><trkpt lat="50.747083" lon="5.834167"> <time>2008-10-21T13:06:53.000Z</time> </trkpt><trkpt lat="50.747556" lon="5.834806"> <time>2008-10-21T13:06:53.000Z</time> </trkpt><trkpt lat="50.747833" lon="5.835583"> <time>2008-10-21T13:06:53.000Z</time> </trkpt><trkpt lat="50.748111" lon="5.836000"> <time>2008-10-21T13:06:53.000Z</time> </trkpt><trkpt lat="50.748583" lon="5.837861"> <time>2008-10-21T13:06:53.000Z</time> </trkpt><trkpt lat="50.749167" lon="5.838361"> <time>2008-10-21T13:06:53.000Z</time> </trkpt><trkpt lat="50.749778" lon="5.838806"> <time>2008-10-21T13:06:53.000Z</time> </trkpt><trkpt lat="50.750417" lon="5.839611"> <time>2008-10-21T13:06:53.000Z</time> </trkpt><trkpt lat="50.750472" lon="5.840333"> <time>2008-10-21T13:06:53.000Z</time> </trkpt><trkpt lat="50.751306" lon="5.842944"> <time>2008-10-21T13:06:53.000Z</time> </trkpt><trkpt lat="50.751611" lon="5.843444"> <time>2008-10-21T13:06:53.000Z</time> </trkpt><trkpt lat="50.751833" lon="5.844250"> <time>2008-10-21T13:06:53.000Z</time> </trkpt><trkpt lat="50.751750" lon="5.845861"> <time>2008-10-21T13:06:53.000Z</time> </trkpt><trkpt lat="50.753000" lon="5.849056"> <time>2008-10-21T13:06:53.000Z</time> </trkpt><trkpt lat="50.754667" lon="5.848389"> <time>2008-10-21T13:06:53.000Z</time> </trkpt><trkpt lat="50.758444" lon="5.850917"> <time>2008-10-21T13:06:53.000Z</time> </trkpt><trkpt lat="50.760083" lon="5.852778"> <time>2008-10-21T13:06:53.000Z</time> </trkpt><trkpt lat="50.761111" lon="5.853472"> <time>2008-10-21T13:06:53.000Z</time> </trkpt><trkpt lat="50.762722" lon="5.856111"> <time>2008-10-21T13:06:53.000Z</time> </trkpt><trkpt lat="50.762472" lon="5.857250"> <time>2008-10-21T13:06:53.000Z</time> </trkpt><trkpt lat="50.761722" lon="5.860528"> <time>2008-10-21T13:06:53.000Z</time> </trkpt><trkpt lat="50.761056" lon="5.863139"> <time>2008-10-21T13:06:53.000Z</time> </trkpt><trkpt lat="50.760583" lon="5.863944"> <time>2008-10-21T13:06:53.000Z</time> </trkpt><trkpt lat="50.759583" lon="5.864722"> <time>2008-10-21T13:06:53.000Z</time> </trkpt><trkpt lat="50.758778" lon="5.865194"> <time>2008-10-21T13:06:53.000Z</time> </trkpt><trkpt lat="50.758500" lon="5.865611"> <time>2008-10-21T13:06:53.000Z</time> </trkpt><trkpt lat="50.758667" lon="5.866417"> <time>2008-10-21T13:06:53.000Z</time> </trkpt><trkpt lat="50.758361" lon="5.866500"> <time>2008-10-21T13:06:53.000Z</time> </trkpt><trkpt lat="50.757722" lon="5.867306"> <time>2008-10-21T13:06:53.000Z</time> </trkpt><trkpt lat="50.757139" lon="5.867361"> <time>2008-10-21T13:06:53.000Z</time> </trkpt><trkpt lat="50.756806" lon="5.867611"> <time>2008-10-21T13:06:53.000Z</time> </trkpt><trkpt lat="50.756111" lon="5.868750"> <time>2008-10-21T13:06:53.000Z</time> </trkpt><trkpt lat="50.755528" lon="5.868917"> <time>2008-10-21T13:06:53.000Z</time> </trkpt><trkpt lat="50.754667" lon="5.870361"> <time>2008-10-21T13:06:53.000Z</time> </trkpt><trkpt lat="50.754111" lon="5.871250"> <time>2008-10-21T13:06:53.000Z</time> </trkpt><trkpt lat="50.752722" lon="5.873000"> <time>2008-10-21T13:06:53.000Z</time> </trkpt><trkpt lat="50.752000" lon="5.873972"> <time>2008-10-21T13:06:53.000Z</time> </trkpt><trkpt lat="50.751472" lon="5.874278"> <time>2008-10-21T13:06:53.000Z</time> </trkpt><trkpt lat="50.751333" lon="5.874889"> <time>2008-10-21T13:01:41.000Z</time> </trkpt><trkpt lat="50.751750" lon="5.876000"> <time>2008-10-21T13:01:41.000Z</time> </trkpt><trkpt lat="50.750583" lon="5.877361"> <time>2008-10-21T13:01:41.000Z</time> </trkpt><trkpt lat="50.750250" lon="5.878250"> <time>2008-10-21T13:01:41.000Z</time> </trkpt><trkpt lat="50.749917" lon="5.879056"> <time>2008-10-21T13:01:41.000Z</time> </trkpt><trkpt lat="50.748667" lon="5.879750"> <time>2008-10-21T13:01:41.000Z</time> </trkpt><trkpt lat="50.748083" lon="5.880639"> <time>2008-10-21T13:01:41.000Z</time> </trkpt><trkpt lat="50.746917" lon="5.883306"> <time>2008-10-21T13:01:41.000Z</time> </trkpt><trkpt lat="50.746194" lon="5.883944"> <time>2008-10-21T13:01:41.000Z</time> </trkpt><trkpt lat="50.745611" lon="5.884778"> <time>2008-10-21T13:01:41.000Z</time> </trkpt><trkpt lat="50.745111" lon="5.885778"> <time>2008-10-21T13:01:41.000Z</time> </trkpt><trkpt lat="50.742361" lon="5.888389"> <time>2008-10-21T13:01:41.000Z</time> </trkpt><trkpt lat="50.736806" lon="5.883667"> <time>2008-10-21T13:01:41.000Z</time> </trkpt><trkpt lat="50.731472" lon="5.880917"> <time>2008-10-21T13:01:41.000Z</time> </trkpt><trkpt lat="50.731222" lon="5.880278"> <time>2008-10-21T13:01:41.000Z</time> </trkpt><trkpt lat="50.729639" lon="5.878306"> <time>2008-10-21T13:01:41.000Z</time> </trkpt><trkpt lat="50.729722" lon="5.877889"> <time>2008-10-21T13:01:41.000Z</time> </trkpt><trkpt lat="50.729556" lon="5.877083"> <time>2008-10-21T13:01:41.000Z</time> </trkpt><trkpt lat="50.730444" lon="5.875694"> <time>2008-10-21T13:01:41.000Z</time> </trkpt><trkpt lat="50.730444" lon="5.875250"> <time>2008-10-21T13:01:41.000Z</time> </trkpt><trkpt lat="50.730639" lon="5.874833"> <time>2008-10-21T13:01:41.000Z</time> </trkpt><trkpt lat="50.731306" lon="5.874667"> <time>2008-10-21T13:01:41.000Z</time> </trkpt><trkpt lat="50.731472" lon="5.874333"> <time>2008-10-21T13:01:41.000Z</time> </trkpt><trkpt lat="50.731667" lon="5.874250"> <time>2008-10-21T13:01:41.000Z</time> </trkpt><trkpt lat="50.731722" lon="5.873889"> <time>2008-10-21T13:01:41.000Z</time> </trkpt><trkpt lat="50.731528" lon="5.872972"> <time>2008-10-21T13:01:41.000Z</time> </trkpt><trkpt lat="50.731111" lon="5.871750"> <time>2008-10-21T13:01:41.000Z</time> </trkpt><trkpt lat="50.730806" lon="5.871250"> <time>2008-10-21T13:01:41.000Z</time> </trkpt><trkpt lat="50.728500" lon="5.868833"> <time>2008-10-21T13:01:41.000Z</time> </trkpt><trkpt lat="50.728417" lon="5.867833"> <time>2008-10-21T13:01:41.000Z</time> </trkpt><trkpt lat="50.728194" lon="5.867917"> <time>2008-10-21T13:01:41.000Z</time> </trkpt><trkpt lat="50.726528" lon="5.867583"> <time>2008-10-21T13:01:41.000Z</time> </trkpt><trkpt lat="50.725778" lon="5.867028"> <time>2008-10-21T13:01:41.000Z</time> </trkpt><trkpt lat="50.724222" lon="5.866806"> <time>2008-10-21T13:01:41.000Z</time> </trkpt><trkpt lat="50.722944" lon="5.866278"> <time>2008-10-21T13:01:41.000Z</time> </trkpt><trkpt lat="50.723444" lon="5.861056"> <time>2008-10-21T13:01:41.000Z</time> </trkpt><trkpt lat="50.723806" lon="5.860500"> <time>2008-10-21T13:01:41.000Z</time> </trkpt><trkpt lat="50.729583" lon="5.859139"> <time>2008-10-21T13:01:41.000Z</time> </trkpt><trkpt lat="50.732722" lon="5.854222"> <time>2008-10-21T13:01:41.000Z</time> </trkpt><trkpt lat="50.734444" lon="5.851861"> <time>2008-10-21T13:01:41.000Z</time> </trkpt><trkpt lat="50.734389" lon="5.851056"> <time>2008-10-21T13:01:41.000Z</time> </trkpt><trkpt lat="50.734528" lon="5.850611"> <time>2008-10-21T13:01:41.000Z</time> </trkpt><trkpt lat="50.735083" lon="5.849944"> <time>2008-10-21T13:01:41.000Z</time> </trkpt><trkpt lat="50.735306" lon="5.849250"> <time>2008-10-21T13:01:41.000Z</time> </trkpt><trkpt lat="50.735444" lon="5.848417"> <time>2008-10-21T13:01:41.000Z</time> </trkpt><trkpt lat="50.735472" lon="5.847833"> <time>2008-10-21T13:01:41.000Z</time> </trkpt><trkpt lat="50.735389" lon="5.847028"> <time>2008-10-21T13:01:41.000Z</time> </trkpt><trkpt lat="50.736139" lon="5.845167"> <time>2008-10-21T13:01:41.000Z</time> </trkpt><trkpt lat="50.736250" lon="5.843944"> <time>2008-10-21T13:01:41.000Z</time> </trkpt><trkpt lat="50.736528" lon="5.842306"> <time>2008-10-21T13:01:41.000Z</time> </trkpt><trkpt lat="50.737194" lon="5.842833"> <time>2008-10-21T13:01:41.000Z</time> </trkpt><trkpt lat="50.737639" lon="5.843083"> <time>2008-10-21T13:01:41.000Z</time> </trkpt><trkpt lat="50.738083" lon="5.841028"> <time>2008-10-21T13:01:41.000Z</time> </trkpt><trkpt lat="50.737917" lon="5.839694"> <time>2008-10-21T13:01:41.000Z</time> </trkpt><trkpt lat="50.739028" lon="5.836583"> <time>2008-10-21T13:01:41.000Z</time> </trkpt><trkpt lat="50.739194" lon="5.834972"> <time>2008-10-21T13:01:41.000Z</time> </trkpt><trkpt lat="50.739472" lon="5.833417"> <time>2008-10-21T13:01:41.000Z</time> </trkpt><trkpt lat="50.739417" lon="5.831611"> <time>2008-10-21T13:01:41.000Z</time> </trkpt><trkpt lat="50.739528" lon="5.830361"> <time>2008-10-21T13:01:41.000Z</time> </trkpt><trkpt lat="50.739444" lon="5.829639"> <time>2008-10-21T13:01:41.000Z</time> </trkpt><trkpt lat="50.739444" lon="5.828694"> <time>2008-10-21T13:01:41.000Z</time> </trkpt><trkpt lat="50.739389" lon="5.827278"> <time>2008-10-21T13:01:41.000Z</time> </trkpt><trkpt lat="50.739611" lon="5.825861"> <time>2008-10-21T13:01:41.000Z</time> </trkpt><trkpt lat="50.739722" lon="5.824639"> <time>2008-10-21T13:01:41.000Z</time> </trkpt><trkpt lat="50.740056" lon="5.823083"> <time>2008-10-21T13:01:41.000Z</time> </trkpt><trkpt lat="50.740333" lon="5.822444"> <time>2008-10-21T13:01:41.000Z</time> </trkpt><trkpt lat="50.739833" lon="5.822333"> <time>2008-10-21T13:01:41.000Z</time> </trkpt><trkpt lat="50.739194" lon="5.822083"> <time>2008-10-21T13:01:41.000Z</time> </trkpt><trkpt lat="50.738306" lon="5.822611"> <time>2008-10-21T13:01:41.000Z</time> </trkpt><trkpt lat="50.738056" lon="5.821750"> <time>2008-10-21T13:01:41.000Z</time> </trkpt><trkpt lat="50.737778" lon="5.821556"> <time>2008-10-21T13:01:41.000Z</time> </trkpt><trkpt lat="50.737444" lon="5.821500"> <time>2008-10-21T13:01:41.000Z</time> </trkpt><trkpt lat="50.737167" lon="5.820556"> <time>2008-10-21T13:01:41.000Z</time> </trkpt><trkpt lat="50.736861" lon="5.820028"> <time>2008-10-21T13:01:41.000Z</time> </trkpt><trkpt lat="50.737250" lon="5.819694"> <time>2008-10-21T13:01:41.000Z</time> </trkpt><trkpt lat="50.738583" lon="5.818194"> <time>2008-10-21T13:01:41.000Z</time> </trkpt><trkpt lat="50.740639" lon="5.816167"> <time>2008-10-21T13:01:41.000Z</time> </trkpt><trkpt lat="50.741083" lon="5.815583"> <time>2008-10-21T13:01:41.000Z</time> </trkpt><trkpt lat="50.741889" lon="5.814083"> <time>2008-10-21T13:01:41.000Z</time> </trkpt><trkpt lat="50.742361" lon="5.812722"> <time>2008-10-21T13:01:41.000Z</time> </trkpt><trkpt lat="50.741333" lon="5.811750"> <time>2008-10-21T13:01:41.000Z</time> </trkpt><trkpt lat="50.740222" lon="5.810722"> <time>2008-10-21T13:01:41.000Z</time> </trkpt><trkpt lat="50.737806" lon="5.808917"> <time>2008-10-21T13:01:41.000Z</time> </trkpt><trkpt lat="50.737222" lon="5.808806"> <time>2008-10-21T13:01:41.000Z</time> </trkpt><trkpt lat="50.736750" lon="5.808639"> <time>2008-10-21T13:01:41.000Z</time> </trkpt><trkpt lat="50.735028" lon="5.809111"> <time>2008-10-21T13:01:41.000Z</time> </trkpt><trkpt lat="50.734417" lon="5.809083"> <time>2008-10-21T13:01:41.000Z</time> </trkpt><trkpt lat="50.734194" lon="5.809167"> <time>2008-10-21T13:01:41.000Z</time> </trkpt><trkpt lat="50.733250" lon="5.807306"> <time>2008-10-21T13:01:41.000Z</time> </trkpt><trkpt lat="50.732972" lon="5.806389"> <time>2008-10-21T13:01:41.000Z</time> </trkpt><trkpt lat="50.733028" lon="5.805778"> <time>2008-10-21T13:01:41.000Z</time> </trkpt><trkpt lat="50.732861" lon="5.805250"> <time>2008-10-21T13:01:41.000Z</time> </trkpt><trkpt lat="50.732722" lon="5.805028"> <time>2008-10-21T13:01:41.000Z</time> </trkpt><trkpt lat="50.732417" lon="5.804028"> <time>2008-10-21T13:01:41.000Z</time> </trkpt><trkpt lat="50.731972" lon="5.802583"> <time>2008-10-21T13:01:41.000Z</time> </trkpt><trkpt lat="50.732000" lon="5.801778"> <time>2008-10-21T13:01:41.000Z</time> </trkpt><trkpt lat="50.731389" lon="5.799639"> <time>2008-10-21T13:01:41.000Z</time> </trkpt><trkpt lat="50.731528" lon="5.798833"> <time>2008-10-21T13:01:41.000Z</time> </trkpt><trkpt lat="50.731806" lon="5.798861"> <time>2008-10-21T13:01:41.000Z</time> </trkpt><trkpt lat="50.732333" lon="5.799389"> <time>2008-10-21T13:01:41.000Z</time> </trkpt><trkpt lat="50.733167" lon="5.799833"> <time>2008-10-21T13:01:41.000Z</time> </trkpt><trkpt lat="50.733528" lon="5.799889"> <time>2008-10-21T13:01:41.000Z</time> </trkpt><trkpt lat="50.733944" lon="5.799583"> <time>2008-10-21T13:01:41.000Z</time> </trkpt><trkpt lat="50.734194" lon="5.799722"> <time>2008-10-21T13:01:41.000Z</time> </trkpt><trkpt lat="50.735111" lon="5.803306"> <time>2008-10-21T13:01:41.000Z</time> </trkpt><trkpt lat="50.735861" lon="5.803944"> <time>2008-10-21T13:01:41.000Z</time> </trkpt><trkpt lat="50.736417" lon="5.804194"> <time>2008-10-21T13:01:41.000Z</time> </trkpt><trkpt lat="50.736806" lon="5.804806"> <time>2008-10-21T13:01:41.000Z</time> </trkpt><trkpt lat="50.737083" lon="5.805000"> <time>2008-10-21T13:01:41.000Z</time> </trkpt><trkpt lat="50.737222" lon="5.805250"> <time>2008-10-21T13:01:41.000Z</time> </trkpt><trkpt lat="50.737861" lon="5.805500"> <time>2008-10-21T13:01:41.000Z</time> </trkpt><trkpt lat="50.738556" lon="5.805611"> <time>2008-10-21T13:01:41.000Z</time> </trkpt><trkpt lat="50.740222" lon="5.807278"> <time>2008-10-21T13:01:41.000Z</time> </trkpt><trkpt lat="50.741167" lon="5.807694"> <time>2008-10-21T13:01:41.000Z</time> </trkpt><trkpt lat="50.741944" lon="5.808500"> <time>2008-10-21T13:01:41.000Z</time> </trkpt><trkpt lat="50.742694" lon="5.808917"> <time>2008-10-21T13:01:41.000Z</time> </trkpt><trkpt lat="50.742833" lon="5.808722"> <time>2008-10-21T13:01:41.000Z</time> </trkpt><trkpt lat="50.742889" lon="5.807306"> <time>2008-10-21T13:01:41.000Z</time> </trkpt><trkpt lat="50.743000" lon="5.806806"> <time>2008-10-21T13:01:41.000Z</time> </trkpt><trkpt lat="50.743083" lon="5.806389"> <time>2008-10-21T13:01:41.000Z</time> </trkpt><trkpt lat="50.743028" lon="5.805861"> <time>2008-10-21T13:01:41.000Z</time> </trkpt><trkpt lat="50.742778" lon="5.804722"> <time>2008-10-21T13:01:41.000Z</time> </trkpt><trkpt lat="50.743056" lon="5.802361"> <time>2008-10-21T12:33:44.000Z</time> </trkpt><trkpt lat="50.743250" lon="5.801361"> <time>2008-10-21T12:33:44.000Z</time> </trkpt><trkpt lat="50.743139" lon="5.800528"> <time>2008-10-21T12:33:44.000Z</time> </trkpt><trkpt lat="50.742444" lon="5.799083"> <time>2008-10-21T12:33:44.000Z</time> </trkpt><trkpt lat="50.741833" lon="5.797500"> <time>2008-10-21T12:33:44.000Z</time> </trkpt><trkpt lat="50.741389" lon="5.796639"> <time>2008-10-21T12:33:44.000Z</time> </trkpt><trkpt lat="50.740500" lon="5.791500"> <time>2008-10-21T12:33:44.000Z</time> </trkpt><trkpt lat="50.740306" lon="5.791083"> <time>2008-10-21T12:33:44.000Z</time> </trkpt><trkpt lat="50.740083" lon="5.790889"> <time>2008-10-21T12:33:44.000Z</time> </trkpt><trkpt lat="50.740528" lon="5.790611"> <time>2008-10-21T12:33:44.000Z</time> </trkpt><trkpt lat="50.741250" lon="5.790500"> <time>2008-10-21T12:33:44.000Z</time> </trkpt><trkpt lat="50.742000" lon="5.790611"> <time>2008-10-21T12:33:44.000Z</time> </trkpt><trkpt lat="50.742611" lon="5.790722"> <time>2008-10-21T12:33:44.000Z</time> </trkpt><trkpt lat="50.743389" lon="5.789889"> <time>2008-10-21T12:33:44.000Z</time> </trkpt><trkpt lat="50.745667" lon="5.785944"> <time>2008-10-21T12:33:44.000Z</time> </trkpt><trkpt lat="50.748500" lon="5.777583"> <time>2008-10-21T12:33:44.000Z</time> </trkpt><trkpt lat="50.749778" lon="5.772278"> <time>2008-10-21T12:33:44.000Z</time> </trkpt><trkpt lat="50.751306" lon="5.770500"> <time>2008-10-21T09:21:00.000Z</time> </trkpt><trkpt lat="50.751528" lon="5.769778"> <time>2008-10-21T09:21:00.000Z</time> </trkpt><trkpt lat="50.752028" lon="5.767306"> <time>2008-10-21T09:21:00.000Z</time> </trkpt><trkpt lat="50.752083" lon="5.766028"> <time>2008-10-21T09:21:00.000Z</time> </trkpt><trkpt lat="50.753250" lon="5.761750"> <ele>10.000000</ele> <time>2008-10-21T09:21:00.000Z</time> </trkpt><trkpt lat="50.755444" lon="5.760278"> <time>2008-10-21T09:21:00.000Z</time> </trkpt><trkpt lat="50.754750" lon="5.759500"> <time>2008-10-21T09:21:00.000Z</time> </trkpt><trkpt lat="50.753667" lon="5.756722"> <time>2008-10-21T09:21:00.000Z</time> </trkpt></trkseg></trk></gpx>